Hourly Weather Klagenfurt

Today, 30 July, Friday

Time Temperature Precipitation Wind Pressure Humidity
00:00 +18°C° 0 mm 1 mps 690 mmHg 86%
01:00 +16°C° 0 mm 1 mps 689 mmHg 86%
02:00 +16°C° 0 mm 1 mps 689 mmHg 87%
03:00 +16°C° 0 mm 1 mps 689 mmHg 87%
04:00 +15°C° 0 mm 1 mps 689 mmHg 88%
05:00 +18°C° 0 mm 1 mps 689 mmHg 83%
06:00 +17°C° 0 mm 0 mps 689 mmHg 77%
07:00 +19°C° 0 mm 0 mps 690 mmHg 72%
08:00 +21°C° 0 mm 0 mps 690 mmHg 65%
09:00 +25°C° 0 mm 1 mps 690 mmHg 59%
10:00 +27°C° 0 mm 1 mps 690 mmHg 52%
11:00 +27°C° 0 mm 1 mps 690 mmHg 49%
12:00 +28°C° 0 mm 1 mps 690 mmHg 47%
13:00 +29°C° 0 mm 1 mps 689 mmHg 44%
14:00 +28°C° 0 mm 1 mps 689 mmHg 47%
15:00 +28°C° 0 mm 2 mps 689 mmHg 49%
16:00 +28°C° 0 mm 2 mps 689 mmHg 52%
17:00 +26°C° 0.1 mm 2 mps 688 mmHg 61%
18:00 +24°C° 0.1 mm 1 mps 688 mmHg 69%
19:00 +22°C° 0.1 mm 1 mps 688 mmHg 78%
20:00 +21°C° 0.3 mm 1 mps 688 mmHg 81%
21:00 +20°C° 0.3 mm 1 mps 688 mmHg 84%
22:00 +19°C° 0.3 mm 1 mps 688 mmHg 88%
23:00 +19°C° 0.4 mm 1 mps 687 mmHg 89%

Tomorrow, 31 July, Saturday

Time Temperature Precipitation Wind Pressure Humidity
00:00 +19°C° 0.4 mm 1 mps 687 mmHg 90%
01:00 +19°C° 0.4 mm 1 mps 687 mmHg 92%
02:00 +18°C° 0.1 mm 1 mps 687 mmHg 92%
03:00 +18°C° 0.1 mm 1 mps 687 mmHg 92%
04:00 +18°C° 0.1 mm 1 mps 686 mmHg 93%
05:00 +19°C° 0.3 mm 1 mps 687 mmHg 91%
06:00 +17°C° 0.3 mm 0 mps 687 mmHg 89%
07:00 +18°C° 0.3 mm 0 mps 687 mmHg 88%
08:00 +20°C° 0.2 mm 0 mps 687 mmHg 80%
09:00 +23°C° 0.2 mm 1 mps 688 mmHg 72%
10:00 +25°C° 0.2 mm 1 mps 688 mmHg 64%
11:00 +26°C° 0.6 mm 1 mps 688 mmHg 61%
12:00 +26°C° 0.6 mm 1 mps 688 mmHg 58%
13:00 +27°C° 0.6 mm 1 mps 688 mmHg 56%
14:00 +27°C° 0.3 mm 2 mps 688 mmHg 54%
15:00 +27°C° 0.3 mm 2 mps 688 mmHg 52%
16:00 +28°C° 0.3 mm 2 mps 687 mmHg 50%
17:00 +26°C° 0 mm 1 mps 687 mmHg 59%
18:00 +24°C° 0 mm 1 mps 687 mmHg 69%
19:00 +22°C° 0 mm 1 mps 687 mmHg 78%
20:00 +20°C° 0.1 mm 1 mps 687 mmHg 82%
21:00 +19°C° 0.1 mm 1 mps 687 mmHg 86%
22:00 +18°C° 0.1 mm 1 mps 687 mmHg 91%
23:00 +16°C° 0.6 mm 1 mps 687 mmHg 92%

Day after tomorrow, 1 August, Sunday

Time Temperature Precipitation Wind Pressure Humidity
00:00 +16°C° 0.6 mm 1 mps 687 mmHg 94%
01:00 +16°C° 0.6 mm 1 mps 687 mmHg 95%
02:00 +15°C° 0.1 mm 1 mps 686 mmHg 96%
03:00 +15°C° 0.1 mm 1 mps 686 mmHg 96%
04:00 +15°C° 0.1 mm 1 mps 686 mmHg 96%
05:00 +15°C° 0.1 mm 0 mps 685 mmHg 94%
06:00 +16°C° 0.1 mm 0 mps 685 mmHg 93%
07:00 +17°C° 0.1 mm 0 mps 685 mmHg 91%
08:00 +18°C° 0.1 mm 0 mps 686 mmHg 83%
09:00 +22°C° 0.1 mm 1 mps 686 mmHg 75%
10:00 +24°C° 0.1 mm 1 mps 686 mmHg 67%
11:00 +25°C° 0.3 mm 2 mps 686 mmHg 64%
12:00 +25°C° 0.3 mm 2 mps 686 mmHg 61%
13:00 +26°C° 0.3 mm 2 mps 686 mmHg 59%
14:00 +25°C° 0.3 mm 2 mps 686 mmHg 61%
15:00 +25°C° 0.3 mm 2 mps 686 mmHg 64%
16:00 +24°C° 0.3 mm 2 mps 686 mmHg 66%
17:00 +21°C° 0.9 mm 2 mps 685 mmHg 75%
18:00 +18°C° 0.9 mm 2 mps 685 mmHg 84%
19:00 +16°C° 0.9 mm 1 mps 685 mmHg 93%
20:00 +15°C° 0.3 mm 1 mps 686 mmHg 94%
21:00 +14°C° 0.3 mm 1 mps 686 mmHg 95%
22:00 +13°C° 0.3 mm 1 mps 687 mmHg 96%
23:00 +13°C° 0 mm 1 mps 687 mmHg 95%

2 August, Monday

Time Temperature Precipitation Wind Pressure Humidity
00:00 +12°C° 0 mm 1 mps 687 mmHg 95%
01:00 +12°C° 0 mm 1 mps 687 mmHg 94%
02:00 +12°C° 0 mm 1 mps 687 mmHg 94%
03:00 +11°C° 0 mm 1 mps 687 mmHg 94%
04:00 +11°C° 0 mm 1 mps 687 mmHg 94%
05:00 +12°C° 0.1 mm 1 mps 688 mmHg 93%
06:00 +12°C° 0.1 mm 0 mps 688 mmHg 92%
07:00 +13°C° 0.1 mm 0 mps 689 mmHg 91%
08:00 +15°C° 0.1 mm 1 mps 689 mmHg 88%
09:00 +15°C° 0.1 mm 1 mps 690 mmHg 86%
10:00 +16°C° 0.1 mm 1 mps 690 mmHg 83%
11:00 +18°C° 0.3 mm 1 mps 690 mmHg 80%
12:00 +19°C° 0.3 mm 1 mps 690 mmHg 76%
13:00 +20°C° 0.3 mm 1 mps 690 mmHg 72%
14:00 +21°C° 0.8 mm 1 mps 690 mmHg 72%
15:00 +21°C° 0.8 mm 1 mps 690 mmHg 72%
16:00 +19°C° 0.8 mm 0 mps 690 mmHg 72%
17:00 +18°C° 0.4 mm 0 mps 690 mmHg 77%
18:00 +17°C° 0.4 mm 0 mps 690 mmHg 82%
19:00 +15°C° 0.4 mm 0 mps 689 mmHg 87%
20:00 +16°C° 0.1 mm 1 mps 690 mmHg 89%
21:00 +15°C° 0.1 mm 1 mps 690 mmHg 91%
22:00 +14°C° 0.1 mm 1 mps 690 mmHg 92%
23:00 +13°C° 0 mm 1 mps 690 mmHg 93%

3 August, Tuesday

Time Temperature Precipitation Wind Pressure Humidity
00:00 +13°C° 0 mm 1 mps 691 mmHg 93%
01:00 +13°C° 0 mm 1 mps 691 mmHg 93%
02:00 +13°C° 0 mm 1 mps 691 mmHg 93%
03:00 +13°C° 0 mm 1 mps 691 mmHg 93%
04:00 +12°C° 0 mm 0 mps 691 mmHg 93%
05:00 +13°C° 0 mm 0 mps 691 mmHg 91%
06:00 +14°C° 0 mm 0 mps 691 mmHg 89%
07:00 +14°C° 0 mm 0 mps 692 mmHg 88%
08:00 +18°C° 0.1 mm 1 mps 692 mmHg 80%
09:00 +20°C° 0.1 mm 1 mps 692 mmHg 72%
10:00 +22°C° 0.1 mm 1 mps 692 mmHg 64%
11:00 +23°C° 0.1 mm 1 mps 692 mmHg 60%
12:00 +24°C° 0.1 mm 1 mps 691 mmHg 57%
13:00 +25°C° 0.1 mm 1 mps 691 mmHg 53%
14:00 +25°C° 0.2 mm 2 mps 690 mmHg 51%
15:00 +25°C° 0.2 mm 2 mps 690 mmHg 49%
16:00 +26°C° 0.2 mm 2 mps 689 mmHg 46%
17:00 +24°C° 0 mm 1 mps 689 mmHg 55%
18:00 +22°C° 0 mm 1 mps 688 mmHg 65%
19:00 +20°C° 0 mm 1 mps 687 mmHg 74%
20:00 +19°C° 0 mm 1 mps 687 mmHg 74%
21:00 +18°C° 0 mm 1 mps 687 mmHg 74%
22:00 +16°C° 0 mm 1 mps 687 mmHg 75%
23:00 +15°C° 0 mm 1 mps 687 mmHg 77%

4 August, Wednesday

Time Temperature Precipitation Wind Pressure Humidity
00:00 +14°C° 0 mm 1 mps 687 mmHg 78%
01:00 +14°C° 0 mm 1 mps 687 mmHg 80%
02:00 +14°C° 0.1 mm 1 mps 687 mmHg 82%
03:00 +13°C° 0.1 mm 1 mps 686 mmHg 84%
04:00 +13°C° 0.1 mm 1 mps 686 mmHg 86%
05:00 +14°C° 0 mm 1 mps 687 mmHg 83%
06:00 +15°C° 0 mm 1 mps 687 mmHg 80%
07:00 +16°C° 0 mm 1 mps 687 mmHg 78%
08:00 +19°C° 0.1 mm 1 mps 688 mmHg 70%
09:00 +21°C° 0.1 mm 1 mps 689 mmHg 63%
10:00 +23°C° 0.1 mm 1 mps 689 mmHg 56%
11:00 +24°C° 0.2 mm 1 mps 689 mmHg 56%
12:00 +24°C° 0.2 mm 1 mps 689 mmHg 56%
13:00 +23°C° 0.2 mm 0 mps 689 mmHg 56%
14:00 +24°C° 0.3 mm 1 mps 689 mmHg 61%
15:00 +23°C° 0.3 mm 1 mps 689 mmHg 66%
16:00 +23°C° 0.3 mm 1 mps 688 mmHg 71%
17:00 +21°C° 0.3 mm 1 mps 688 mmHg 76%
18:00 +20°C° 0.3 mm 1 mps 688 mmHg 81%
19:00 +19°C° 0.3 mm 1 mps 688 mmHg 87%
20:00 +18°C° 0.1 mm 1 mps 688 mmHg 89%
21:00 +16°C° 0.1 mm 1 mps 688 mmHg 91%
22:00 +15°C° 0.1 mm 1 mps 688 mmHg 93%
23:00 +14°C° 0.5 mm 1 mps 688 mmHg 94%
Show more